Location: Unspecified
(47.4992°N, 121.7766°W)
Time: 10:26:54
(UTC-07:00)

Cosmos 1674 - Visible Passes

Search period start: 23 September 2019 00:00
Search period end: 03 October 2019 00:00
Orbit: 495 x 520 km, 82.5° (Epoch: 22 September)

Date Brightness Start Highest point End Pass type
(mag) Time Alt. Az. Time Alt. Az. Time Alt. Az.
23 Sep 2.7 20:55:22 10° NNW 20:59:05 76° W 21:00:25 38° S visible
24 Sep 2.5 20:37:42 10° N 20:41:27 82° E 20:43:25 27° SSE visible
25 Sep 2.6 20:20:06 10° N 20:23:48 62° ENE 20:26:30 17° SSE visible
25 Sep 5.9 21:58:03 10° WNW 21:58:47 10° W 21:59:32 10° W visible
26 Sep 2.9 20:02:32 10° N 20:06:09 47° ENE 20:09:43 10° SSE visible
26 Sep 5.7 21:39:23 10° NW 21:41:16 13° W 21:43:09 10° WSW visible
27 Sep 3.2 19:45:00 10° N 19:48:28 36° ENE 19:51:55 10° SE visible
27 Sep 5.5 21:21:15 10° NW 21:23:44 17° W 21:26:12 10° SW visible
28 Sep 3.5 19:27:30 10° NNE 19:30:47 28° ENE 19:34:02 10° SE visible
28 Sep 5.1 21:03:17 10° NW 21:06:11 22° W 21:09:04 10° SW visible
29 Sep 4.7 20:45:24 10° NNW 20:48:37 27° W 20:51:48 10° SSW visible
30 Sep 4.3 20:27:36 10° NNW 20:31:01 35° W 20:34:27 10° SSW visible
01 Oct 3.7 20:09:50 10° NNW 20:13:26 46° W 20:17:01 10° SSW visible
02 Oct 3.2 19:52:08 10° NNW 19:55:49 61° W 19:59:30 10° S visible
